Weather History for Lafayette, IN

Change the Weather History Date:

Thursday, June 26, 2014

  Actual Average Record
Temperature  
Mean Temperature 74 °F 74 °F  
Max Temperature 85 °F 85 °F 97 °F (1978)
Min Temperature 62 °F 63 °F 47 °F (1967)
Degree Days  
Heating Degree Days 0 0  
Month to date heating degree days 6 22  
Since 1 June heating degree days 6 22  
Since 1 July heating degree days 6552 5672  
Cooling Degree Days 9 9  
Month to date cooling degree days 175 179  
Year to date cooling degree days 272 256  
Since 1 June cooling degree days 175 179  
Growing Degree Days 23 (Base 50)    
Moisture  
Dew Point 64 °F    
Average Humidity 78    
Maximum Humidity 100    
Minimum Humidity 55    
Precipitation  
Precipitation 0.00 in 0.15 in 1.02 in (2008)
Month to date precipitation 4.45 3.57  
Year to date precipitation 17.28 17.59  
Sea Level Pressure  
Sea Level Pressure 30.03 in    
Wind  
Wind Speed 4 mph (NNE)    
Max Wind Speed 12 mph    
Max Gust Speed 13 mph    
Visibility 5 miles    
Events Fog    
T = Trace of Precipitation, MM = Missing Value Source: NWS Daily Summary

Daily Weather History Graph

Daily Weather History Graph

Search for Another Location

Airport:

Trip Planner

Search our weather history database for the weather conditions in past years. The results will help you decide how hot, cold, wet, or windy it might be!

Date:

Astronomy

Jun. 26, 2014 Rise Set
Actual Time 6:19 AM EDT 9:22 PM EDT
Civil Twilight 5:45 AM EDT 9:55 PM EDT
Nautical Twilight 5:03 AM EDT 10:37 PM EDT
Astronomical Twilight 4:14 AM EDT 11:26 PM EDT
Moon 5:58 AM EDT 8:42 PM EDT
Length of Visible Light 16h 09m
Length of Day
15h 02m
Waning Crescent, 0% of the Moon is Illuminated
Jun 26
Waning Crescent
Jun 27
New
Jul 5
First Quarter
Jul 12
Full
Jul 18
Last Quarter

Hourly Weather History & Observations

Time (EDT) Temp. Heat Index Dew Point Humidity Pressure Visibility Wind Dir Wind Speed Gust Speed Precip Events Conditions
1:54 AM 66.9 °F - 64.0 °F 90% 30.03 in 6.0 mi NNE 4.6 mph - N/A   Mostly Cloudy
2:38 AM 64.9 °F - 64.0 °F 97% 30.04 in 5.0 mi NNE 4.6 mph - N/A   Scattered Clouds
2:54 AM 64.0 °F - 63.0 °F 96% 30.03 in 3.0 mi NNE 5.8 mph - N/A   Scattered Clouds
3:00 AM 64.0 °F - 63.0 °F 96% 30.04 in 1.8 mi NE 5.8 mph - N/A   Mostly Cloudy
3:35 AM 64.0 °F - 64.0 °F 100% 30.04 in 0.5 mi North 4.6 mph - N/A Fog Fog
3:54 AM 63.0 °F - 63.0 °F 100% 30.03 in 0.2 mi North 6.9 mph - N/A Fog Fog
4:03 AM 63.0 °F - 63.0 °F 100% 30.04 in 0.5 mi North 4.6 mph - N/A Fog Fog
4:19 AM 63.0 °F - 63.0 °F 100% 30.04 in 1.0 mi NNE 3.5 mph - N/A   Mist
4:54 AM 63.0 °F - 63.0 °F 100% 30.03 in 0.5 mi Calm Calm - N/A Fog Fog
5:54 AM 62.1 °F - 62.1 °F 100% 30.04 in 0.5 mi North 4.6 mph - N/A Fog Fog
6:54 AM 62.1 °F - 62.1 °F 100% 30.05 in 0.5 mi NE 4.6 mph - N/A Fog Fog
7:54 AM 63.0 °F - 62.1 °F 97% 30.05 in 0.5 mi North 4.6 mph - N/A Fog Fog
8:21 AM 63.0 °F - 63.0 °F 100% 30.07 in 1.5 mi NNE 3.5 mph - N/A   Overcast
8:36 AM 63.0 °F - 62.1 °F 97% 30.07 in 2.0 mi NNE 5.8 mph - N/A   Overcast
8:54 AM 63.0 °F - 62.1 °F 97% 30.07 in 2.0 mi NNE 6.9 mph - N/A   Overcast
9:54 AM 64.9 °F - 64.0 °F 97% 30.07 in 2.0 mi East 3.5 mph - N/A   Overcast
10:01 AM 64.9 °F - 64.0 °F 97% 30.08 in 4.0 mi East 4.6 mph - N/A   Overcast
10:12 AM 66.0 °F - 64.0 °F 93% 30.08 in 5.0 mi ENE 5.8 mph - N/A   Overcast
10:54 AM 70.0 °F - 64.9 °F 84% 30.06 in 6.0 mi NNE 4.6 mph - N/A   Haze
11:08 AM 70.0 °F - 64.9 °F 84% 30.07 in 7.0 mi ENE 4.6 mph - N/A   Scattered Clouds
11:54 AM 73.0 °F - 64.9 °F 76% 30.06 in 8.0 mi Calm Calm - N/A   Clear
12:54 PM 77.0 °F - 66.9 °F 71% 30.04 in 10.0 mi Calm Calm - N/A   Clear
1:54 PM 80.1 °F 81.9 °F 64.9 °F 60% 30.03 in 10.0 mi Variable 4.6 mph - N/A   Partly Cloudy
2:54 PM 82.9 °F 84.6 °F 64.9 °F 54% 30.02 in 10.0 mi North 3.5 mph - N/A   Clear
3:54 PM 82.9 °F 84.4 °F 64.0 °F 53% 30.00 in 10.0 mi Variable 4.6 mph - N/A   Clear
4:54 PM 84.0 °F 86.3 °F 66.0 °F 55% 29.99 in 10.0 mi Variable 3.5 mph - N/A   Mostly Cloudy
5:54 PM 82.9 °F 85.4 °F 66.9 °F 58% 29.98 in 10.0 mi ENE 5.8 mph - N/A   Mostly Cloudy
6:54 PM 82.0 °F 84.5 °F 66.9 °F 60% 29.97 in 10.0 mi ENE 10.4 mph - N/A   Mostly Cloudy
7:54 PM 80.1 °F 82.1 °F 66.0 °F 62% 29.97 in 10.0 mi NE 4.6 mph - N/A   Clear
8:54 PM 78.1 °F - 66.9 °F 68% 29.98 in 10.0 mi NE 6.9 mph - N/A   Partly Cloudy
9:54 PM 73.9 °F - 66.9 °F 79% 29.99 in 10.0 mi NE 5.8 mph - N/A   Clear
10:54 PM 73.0 °F - 66.9 °F 81% 30.01 in 10.0 mi NE 4.6 mph - N/A   Clear
11:54 PM 71.1 °F - 66.9 °F 87% 30.02 in 10.0 mi Calm Calm - N/A   Clear